Cloud_Cover
0 14 18 16 18 5 0 0 5 0 0 0 2 0 0 0 0 5 8 5 7 100 100 64 70 93 37 91 79 85 41 28 5 100 100 14 5 0 0 0 0 2 0 0 0
13 20 14 19 20 14 5 4 5 0 0 0 0 4 0 3 0 1 7 5 5 19 100 100 95 91 96 99 99 83 99 19 5 100 100 14 3 0 0 0 0 0 0 0 0
15 14 6 7 5 19 4 5 5 5 2 0 0 0 0 10 0 0 3 17 5 5 94 100 100 58 100 100 100 94 100 79 40 66 37 73 63 0 3 4 0 0 0 0 0
13 19 12 11 1 2 6 3 5 5 0 0 5 5 0 0 0 0 0 5 28 13 13 100 100 54 100 100 100 99 6 33 60 71 62 100 84 1 5 4 2 5 0 0 0
0 2 4 10 2 0 0 0 0 5 5 0 0 0 4 0 0 0 0 0 27 99 100 86 98 54 64 100 100 99 13 89 100 83 100 100 40 83 5 3 0 2 4 0 0
0 0 0 0 0 0 0 0 0 0 2 4 1 35 4 2 0 0 0 0 0 34 5 7 45 100 20 28 100 98 50 41 100 100 100 100 83 30 6 5 4 0 4 0 0
0 0 0 0 0 0 0 0 4 0 0 0 3 2 0 0 0 0 0 0 0 0 0 5 5 2 100 24 80 100 100 72 100 100 100 63 23 6 1 5 3 0 0 0 0
0 0 0 6 0 0 0 0 0 0 0 0 0 0 0 1 0 0 0 5 0 0 0 0 0 3 3 39 99 100 100 81 100 90 100 94 89 99 96 3 3 0 0 4 0
5 0 0 1 0 0 0 0 0 0 0 0 1 0 0 0 0 0 0 5 0 0 20 1 56 5 0 4 74 76 100 100 100 100 100 100 100 100 98 16 4 0 0 2 0
0 0 0 0 0 0 0 1 0 9 2 0 0 0 0 0 0 0 4 0 5 0 4 1 1 30 0 18 99 5 16 100 100 97 100 100 100 91 100 100 74 5 5 30 5
4 0 2 0 0 0 14 0 0 0 0 0 0 0 0 0 0 0 0 0 0 0 0 0 0 5 81 65 25 5 0 7 96 100 100 100 100 100 100 100 100 58 88 5 27
27 18 14 0 0 1 5 0 0 0 0 0 0 0 0 0 0 0 0 0 0 0 0 0 0 0 0 4 2 5 0 0 93 96 100 100 100 100 100 100 100 100 100 100 41
78 36 4 0 1 33 0 0 0 0 0 0 0 0 0 0 0 0 0 0 0 0 0 0 0 0 0 0 1 5 4 0 4 33 59 87 97 100 100 89 100 100 100 100 94
100 100 21 56 9 0 0 0 0 0 0 0 0 0 0 0 0 0 0 0 0 0 0 0 0 0 0 0 0 0 0 0 0 1 51 35 92 97 76 31 5 5 5 3 18
100 100 99 40 0 0 0 0 0 0 0 0 0 0 0 0 0 0 0 0 0 0 0 0 0 0 0 0 0 0 0 0 0 0 0 0 1 5 0 0 5 5 5 0 6
100 100 96 0 0 0 0 0 0 0 0 0 0 0 0 0 0 0 0 0 0 0 0 0 0 0 0 0 0 0 0 0 0 0 0 0 1 4 5 2 44 5 5 5 1
100 100 55 0 0 0 0 0 0 0 0 0 0 0 0 0 0 0 0 0 0 0 0 0 0 0 0 0 0 0 0 0 0 0 0 0 0 0 4 0 1 5 5 5 5
82 40 1 0 0 0 0 0 0 0 0 0 0 0 0 0 0 0 0 0 0 0 0 0 0 0 0 0 0 0 0 0 0 0 0 0 0 0 0 0 3 5 5 5 7
31 0 0 0 0 0 0 0 0 0 0 0 0 0 0 0 0 0 0 0 0 0 0 0 0 0 0 0 0 0 0 0 0 0 0 0 0 0 0 0 0 4 5 5 5
16 0 0 0 0 0 0 0 0 0 0 0 0 0 0 0 0 0 0 0 0 0 0 0 0 0 0 0 0 0 0 0 0 0 0 0 0 0 0 0 0 0 0 5 50
100 11 4 0 0 0 0 0 0 0 0 0 0 0 0 0 0 0 0 0 0 0 0 0 0 0 0 0 0 0 0 0 0 0 0 0 0 0 0 0 0 0 0 0 1
100 100 32 4 0 0 0 0 0 0 0 0 0 0 0 0 0 0 0 0 0 0 0 0 0 0 0 0 0 0 0 0 0 0 0 0 0 0 0 0 0 0 0 0 0
100 100 100 100 5 1 0 0 0 0 0 0 0 0 0 0 0 0 0 0 0 0 0 0 0 0 0 0 0 0 0 0 0 0 0 0 0 0 0 0 0 0 0 0 0
100 100 100 100 76 5 5 3 0 0 0 0 0 0 0 0 0 0 0 0 0 0 0 0 0 0 0 0 0 0 0 0 0 0 0 0 0 0 0 0 0 0 0 0 0
100 100 100 100 100 100 94 5 5 3 0 0 0 0 0 0 0 0 0 0 0 0 0 0 0 0 0 0 0 0 0 0 0 0 0 0 0 0 0 0 0 0 0 0 0
100 100 100 100 100 100 100 98 8 5 1 0 0 0 0 0 0 0 0 0 0 0 0 0 0 0 0 0 0 0 0 0 0 0 0 0 0 0 0 0 0 0 0 0 0
100 100 100 100 100 100 100 100 100 97 10 4 0 0 0 0 0 0 0 0 0 0 0 0 0 0 0 0 0 0 0 0 0 0 0 0 0 0 0 0 3 4 4 0 0